Location: *
(52.2090°N, 4.1550°W)
Time: 20:06:22
(UTC+00:00)

Cosmos 1954 Rocket - Pass Details

Date: 19 July 2019
Orbit: 751 x 782 km, 74.0° (Epoch: 24 August)

Event Time Altitude Azimuth Distance (km) Brightness Sun altitude
Exits shadow 22:22:42 10° 190° (S) 2,301 6.0 -12.5°
Reaches altitude 10° 22:22:43 10° 190° (S) 2,295 6.0 -12.5°
Maximum altitude 22:27:52 64° 110° (ESE) 856 4.0 -12.8°
Drops below altitude 10° 22:33:05 10° 30° (NNE) 2,332 7.0 -13.2°
Sets 22:35:30 0° 28° (NNE) 3,268 7.8 -13.4°
